Date_and_time,latitude,longitude,wind_speed,RelWindDirFrom,WindDirFrom,air_pressure,air_temperature,relative_humidity,Temp,platform_speed_wrt_ground,air_pressure_at_mean_sea_level,platform_orientation
2019-11-24 23:50,50.6304466666667,-96.9807683333333,2.6,3.3,94,968.08,0.8,99,1.18,0.0,995.30,41.3
2019-11-25 00:00,50.6304466666667,-96.9807683333333,2.3,2.9,84,968.20,0.8,99,1.19,0.0,995.45,18.9
2019-11-25 00:10,50.6304466666667,-96.9807683333333,1.8,2.6,54,968.21,0.5,99,1.19,0.0,995.48,18.9
2019-11-25 00:20,50.6304466666667,-96.9807683333333,1.5,2.7,96,968.22,0.6,99,1.19,0.0,995.49,18.9
2019-11-25 00:30,50.6304466666667,-96.9807683333333,1.9,2.9,153,968.20,0.3,99,1.20,0.0,995.47,18.9
2019-11-25 00:40,50.630445,-96.9807683333333,2.3,3.2,166,968.11,0.2,99,1.21,0.0,995.38,18.9
2019-11-25 00:50,50.6304483333333,-96.9807733333333,3.5,4.4,161,967.99,0.2,99,1.20,0.0,995.29,18.9
2019-11-25 01:00,50.6304483333333,-96.9807683333333,3.2,4.3,166,968.01,0.3,99,1.20,0.0,995.29,311.7
2019-11-25 01:10,50.6304466666667,-96.9807633333333,2.0,3.2,105,967.93,0.9,99,1.20,0.0,995.16,311.7
2019-11-25 01:20,50.6304466666667,-96.98077,3.0,4.1,112,967.83,1.0,99,1.21,0.0,995.04,311.7
2019-11-25 01:30,50.630445,-96.9807683333333,2.9,4.0,87,967.81,0.9,99,1.23,0.0,995.02,311.7
2019-11-25 01:40,50.630445,-96.9807633333333,2.0,3.8,13,967.78,0.5,99,1.22,0.0,995.00,311.7
2019-11-25 01:50,50.6304466666667,-96.9807633333333,3.6,4.6,30,967.65,0.3,100,1.19,0.0,994.89,311.7
2019-11-25 02:00,50.6304466666667,-96.980765,4.5,5.5,37,967.61,0.3,100,1.16,0.0,994.86,360.0
2019-11-25 02:10,50.630455,-96.980795,5.6,6.2,43,967.56,0.4,100,1.16,0.0,994.80,360.0
2019-11-25 02:20,50.6304483333333,-96.9807766666667,5.6,6.9,38,967.56,0.4,100,1.14,0.0,994.81,360.0
2019-11-25 02:30,50.630445,-96.980765,4.7,5.3,48,967.52,0.5,100,1.14,0.0,994.78,360.0
2019-11-25 02:40,50.6304483333333,-96.980765,4.3,5.2,39,967.48,0.4,100,1.12,0.0,994.74,360.0
2019-11-25 02:50,50.6304466666667,-96.98077,3.9,4.5,35,967.52,0.4,100,1.09,0.0,994.78,360.0
2019-11-25 03:00,50.630445,-96.98077,3.8,4.3,24,967.52,0.3,100,1.10,0.0,994.75,360.0
2019-11-25 03:10,50.6304466666667,-96.9807666666667,4.0,4.6,18,967.47,0.3,100,1.11,0.0,994.70,360.0
2019-11-25 03:20,50.6304516666667,-96.9807766666667,4.8,5.2,23,967.38,0.4,100,1.10,0.0,994.60,360.0
2019-11-25 03:30,50.6304516666667,-96.9807783333333,5.2,5.7,31,967.31,0.6,100,1.09,0.0,994.53,360.0
2019-11-25 03:40,50.63045,-96.9807683333333,5.3,6.5,39,967.28,0.6,100,1.09,0.0,994.52,360.0
2019-11-25 03:50,50.63045,-96.98077,3.9,5.5,26,967.26,0.6,100,1.09,0.0,994.50,360.0
2019-11-25 04:00,50.6304483333333,-96.98077,3.8,4.4,24,967.21,0.5,100,1.09,0.0,994.44,0.0
2019-11-25 04:10,50.6304466666667,-96.9807683333333,3.6,4.3,17,967.15,0.5,100,1.09,0.0,994.38,0.0
2019-11-25 04:20,50.6304466666667,-96.98077,5.4,6.4,10,967.14,0.5,100,1.11,0.0,994.37,0.0
2019-11-25 04:30,50.6304466666667,-96.98077,5.5,6.4,19,967.08,0.5,100,1.12,0.0,994.31,0.0
2019-11-25 04:40,50.6304483333333,-96.9807983333333,5.1,6.1,17,967.03,0.4,100,1.13,0.0,994.26,0.0
2019-11-25 04:50,50.63045,-96.9807866666667,4.1,5.5,20,966.94,0.4,100,1.14,0.0,994.18,0.0
2019-11-25 05:00,50.630445,-96.9807733333333,5.2,7.0,9,966.87,0.3,100,1.14,0.0,994.11,192.6
2019-11-25 05:10,50.6304433333333,-96.980725,6.5,7.3,23,966.80,0.3,100,1.14,0.0,994.04,192.6
2019-11-25 05:20,50.6304783333333,-96.980805,6.0,7.1,49,966.79,0.5,100,1.14,0.0,994.00,192.6
2019-11-25 05:30,50.6304516666667,-96.980775,5.5,6.6,36,966.84,0.4,100,1.12,0.0,994.06,192.6
2019-11-25 05:40,50.6304433333333,-96.9807666666667,5.0,5.8,13,966.86,0.2,100,1.12,0.0,994.09,192.6
2019-11-25 05:50,50.6304416666667,-96.980765,5.5,7.2,40,966.87,0.3,100,1.12,0.0,994.10,192.6
2019-11-25 06:00,50.6304416666667,-96.980765,6.9,7.6,42,966.90,0.4,100,1.09,0.0,994.13,0.0
2019-11-25 06:10,50.6304416666667,-96.9807633333333,7.3,8.3,42,966.90,0.4,100,1.09,0.0,994.13,0.0
2019-11-25 06:20,50.6304433333333,-96.9807633333333,8.4,9.1,50,966.92,0.4,100,1.09,0.0,994.14,0.0
2019-11-25 06:30,50.6304433333333,-96.9807616666667,8.2,9.2,43,966.92,0.4,100,1.09,0.0,994.15,0.0
2019-11-25 06:40,50.630445,-96.9807616666667,9.2,10.1,48,966.87,0.4,100,1.09,0.0,994.10,0.0
2019-11-25 06:50,50.630445,-96.9807616666667,9.3,10.4,51,966.87,0.6,99,1.08,0.0,994.09,0.0
2019-11-25 07:00,50.630445,-96.9807616666667,9.0,10.5,35,966.91,0.4,100,1.07,0.0,994.15,167.4
2019-11-25 07:10,50.630445,-96.9807616666667,9.4,10.8,38,966.91,0.4,100,1.08,0.0,994.14,167.4
2019-11-25 07:20,50.630445,-96.9807616666667,9.9,11.9,27,966.96,0.2,100,1.07,0.0,994.20,167.4
2019-11-25 07:30,50.6304133333333,-96.98075,11.4,13.1,31,967.00,0.1,100,1.07,0.0,994.26,167.4
2019-11-25 07:40,50.630445,-96.9807516666667,12.3,13.6,33,966.96,0.1,100,1.07,0.0,994.21,167.4
2019-11-25 07:50,50.6304466666667,-96.9807616666667,12.4,13.9,26,967.02,0.1,100,1.08,0.0,994.27,167.4
2019-11-25 08:00,50.6304466666667,-96.980765,12.6,14.1,30,967.08,-0.0,100,1.07,0.0,994.34,12.6
2019-11-25 08:10,50.6304483333333,-96.9807666666667,11.8,13.7,30,967.14,-0.0,99,1.07,0.0,994.40,12.6
2019-11-25 08:20,50.6304483333333,-96.9807666666667,12.1,13.6,33,967.23,0.1,99,1.08,0.0,994.49,12.6
2019-11-25 08:30,50.6304483333333,-96.9807666666667,12.6,14.3,32,967.33,0.1,99,1.07,0.0,994.58,12.6
2019-11-25 08:40,50.6304483333333,-96.9807666666667,11.5,13.7,26,967.40,0.1,99,1.06,0.0,994.65,12.6
2019-11-25 08:50,50.6304483333333,-96.9807666666667,11.2,12.5,22,967.49,0.1,99,1.06,0.0,994.75,12.6
2019-11-25 09:00,50.6304483333333,-96.980765,10.7,12.3,15,967.60,0.0,99,1.07,0.0,994.88,360.0
2019-11-25 09:10,50.6304483333333,-96.980765,11.6,13.6,21,967.60,-0.1,99,1.06,0.0,994.88,360.0
2019-11-25 09:20,50.6304483333333,-96.9807433333333,11.1,13.6,27,967.62,-0.1,99,1.07,0.0,994.91,360.0
2019-11-25 09:30,50.6304416666667,-96.9807566666667,12.1,14.0,34,967.60,-0.1,99,1.06,0.0,994.89,360.0
2019-11-25 09:40,50.6304433333333,-96.9807616666667,13.7,16.1,43,967.65,0.0,99,1.05,0.0,994.94,360.0
2019-11-25 09:50,50.6304433333333,-96.9807633333333,12.8,15.0,39,967.81,0.0,99,1.05,0.0,995.11,360.0
2019-11-25 10:00,50.63042,-96.9807366666667,11.8,14.2,38,967.89,-0.0,99,1.05,0.0,995.19,142.3
2019-11-25 10:10,50.6304833333333,-96.9808133333333,10.7,12.4,38,967.91,0.0,99,1.05,0.0,995.21,142.3
2019-11-25 10:20,50.63045,-96.9807833333333,10.7,12.3,21,968.01,-0.0,99,1.05,0.0,995.30,142.3
2019-11-25 10:30,50.6304516666667,-96.98078,10.4,11.5,25,967.97,-0.0,99,1.06,0.0,995.27,142.3
2019-11-25 10:40,50.63045,-96.9807766666667,10.4,11.6,17,968.09,-0.1,99,1.06,0.0,995.40,142.3
2019-11-25 10:50,50.6304516666667,-96.9807766666667,10.2,12.7,14,968.20,-0.2,99,1.05,0.0,995.52,142.3
2019-11-25 11:00,50.630485,-96.9807783333333,11.4,13.0,20,968.29,-0.1,99,1.03,0.0,995.61,341.5
2019-11-25 11:10,50.6304416666667,-96.9807733333333,11.3,12.7,14,968.43,-0.2,99,1.02,0.0,995.76,341.5
2019-11-25 11:20,50.630445,-96.9807733333333,10.7,12.9,9,968.59,-0.2,99,1.02,0.0,995.92,341.5
2019-11-25 11:30,50.630455,-96.9807866666667,12.0,14.4,6,968.61,-0.3,99,1.01,0.0,995.94,341.5
2019-11-25 11:40,50.6304466666667,-96.9807666666667,12.5,16.1,4,968.72,-0.3,99,1.01,0.0,996.06,341.5
2019-11-25 11:50,50.6304433333333,-96.98077,13.1,15.7,5,968.82,-0.3,99,1.00,0.0,996.16,341.5
2019-11-25 12:00,50.6304483333333,-96.980755,13.6,15.5,8,968.90,-0.3,99,1.00,0.0,996.24,90.0
2019-11-25 12:10,50.6304433333333,-96.98076,13.8,15.9,10,968.97,-0.4,99,1.00,0.0,996.32,90.0
2019-11-25 12:20,50.63044,-96.9807583333333,13.2,15.3,9,969.17,-0.4,99,1.01,0.0,996.53,90.0
2019-11-25 12:30,50.63044,-96.9807816666667,14.2,16.6,10,969.21,-0.3,99,1.01,0.0,996.57,90.0
2019-11-25 12:40,50.6304316666667,-96.9807766666667,12.9,14.7,9,969.34,-0.3,99,1.01,0.0,996.70,90.0
2019-11-25 12:50,50.6304316666667,-96.9807783333333,12.5,14.6,10,969.45,-0.3,99,1.02,0.0,996.81,90.0
2019-11-25 13:00,50.6304383333333,-96.9807716666667,13.3,15.9,8,969.49,-0.3,99,1.02,0.0,996.86,316.2
2019-11-25 13:10,50.63044,-96.9807633333333,13.4,15.7,7,969.63,-0.3,99,1.02,0.0,997.00,316.2
2019-11-25 13:20,50.63044,-96.9807633333333,13.9,16.1,6,969.75,-0.3,99,1.01,0.0,997.13,316.2
2019-11-25 13:30,50.63044,-96.9807616666667,13.9,17.3,5,969.83,-0.4,99,1.02,0.0,997.22,316.2
2019-11-25 13:40,50.6304416666667,-96.9807633333333,13.4,15.9,1,970.00,-0.4,99,1.02,0.0,997.40,316.2
2019-11-25 13:50,50.6304416666667,-96.980765,13.6,15.8,4,970.16,-0.5,99,1.02,0.0,997.56,316.2
2019-11-25 14:00,50.6304433333333,-96.9807666666667,13.9,17.3,1,970.30,-0.5,99,1.02,0.0,997.71,360.0
2019-11-25 14:10,50.6304216666667,-96.9807716666667,14.0,16.8,360,970.45,-0.5,99,1.02,0.0,997.87,360.0
2019-11-25 14:20,50.6304316666667,-96.9807683333333,13.6,17.0,3,970.54,-0.5,99,1.02,0.0,997.96,360.0
2019-11-25 14:30,50.63044,-96.9807766666667,14.1,17.9,3,970.63,-0.5,99,1.01,0.0,998.05,360.0
2019-11-25 14:40,50.6304533333333,-96.9807633333333,13.9,16.3,1,970.83,-0.5,99,1.01,0.0,998.25,360.0
2019-11-25 14:50,50.630455,-96.9807666666667,13.9,16.9,360,971.06,-0.5,99,1.01,0.0,998.49,360.0
2019-11-25 15:00,50.6304533333333,-96.980765,14.1,16.9,360,971.22,-0.5,98,1.00,0.0,998.66,311.7
2019-11-25 15:10,50.63045,-96.9807633333333,14.0,18.5,2,971.38,-0.5,98,0.98,0.0,998.82,311.7
2019-11-25 15:20,50.63045,-96.9807666666667,14.3,17.4,6,971.54,-0.5,97,0.98,0.0,998.98,311.7
2019-11-25 15:30,50.6304483333333,-96.9807666666667,13.2,16.1,8,971.70,-0.5,99,0.97,0.0,999.15,311.7
2019-11-25 15:40,50.6304283333333,-96.980815,11.6,15.0,0,971.87,-0.5,99,0.97,0.0,999.33,311.7
2019-11-25 15:50,50.6304383333333,-96.980785,9.3,11.9,3,972.07,-0.5,99,0.98,0.0,999.53,311.7
2019-11-25 16:00,50.6304466666667,-96.9807866666667,9.1,10.9,360,972.20,-0.5,98,0.98,0.0,999.67,291.5
2019-11-25 16:10,50.6304333333333,-96.980775,9.1,12.3,356,972.30,-0.4,98,0.98,0.0,999.77,291.5
2019-11-25 16:20,50.6304333333333,-96.9807716666667,9.3,10.9,359,972.43,-0.4,96,0.98,0.0,999.90,291.5
2019-11-25 16:30,50.6304366666667,-96.9807683333333,9.5,12.5,358,972.56,-0.3,94,0.99,0.0,1000.03,291.5
2019-11-25 16:40,50.6304383333333,-96.9807683333333,9.9,12.3,1,972.68,-0.3,94,1.00,0.0,1000.16,291.5
2019-11-25 16:50,50.6304416666667,-96.9807666666667,9.5,12.0,2,972.84,-0.4,96,1.01,0.0,1000.32,291.5
2019-11-25 17:00,50.6304116666667,-96.980765,11.2,13.4,360,972.88,-0.4,96,1.01,0.0,1000.37,151.1
2019-11-25 17:10,50.630455,-96.980775,10.9,13.1,1,972.96,-0.4,95,1.01,0.0,1000.45,151.1
2019-11-25 17:20,50.6304483333333,-96.9807733333333,10.1,13.0,2,973.09,-0.4,94,1.02,0.0,1000.59,151.1
2019-11-25 17:30,50.6304483333333,-96.9807633333333,10.1,12.4,1,973.17,-0.4,95,1.02,0.0,1000.66,151.1
2019-11-25 17:40,50.6304483333333,-96.980765,10.0,12.1,1,973.27,-0.5,95,1.02,0.0,1000.78,151.1
2019-11-25 17:50,50.6304483333333,-96.9807683333333,9.5,11.5,8,973.38,-0.6,95,1.03,0.0,1000.88,151.1
2019-11-25 18:00,50.6304466666667,-96.9807683333333,9.0,10.3,11,973.54,-0.6,96,1.03,0.0,1001.05,142.0
2019-11-25 18:10,50.630435,-96.9807866666667,9.6,10.6,16,973.59,-0.6,97,1.04,0.0,1001.10,142.0
2019-11-25 18:20,50.6304416666667,-96.980765,9.1,10.7,13,973.67,-0.6,99,1.04,0.0,1001.17,142.0
2019-11-25 18:30,50.63044,-96.980765,9.2,11.0,17,973.71,-0.5,99,1.03,0.0,1001.22,142.0
2019-11-25 18:40,50.6304416666667,-96.9807616666667,10.4,12.4,22,973.71,-0.5,99,1.03,0.0,1001.22,142.0
2019-11-25 18:50,50.6304433333333,-96.98076,11.3,12.6,15,973.70,-0.6,99,1.05,0.0,1001.21,142.0
2019-11-25 19:00,50.630445,-96.980765,10.8,12.7,15,973.69,-0.6,99,1.06,0.0,1001.21,107.7
2019-11-25 19:10,50.630445,-96.980765,11.9,13.8,16,973.65,-0.5,99,1.07,0.0,1001.16,107.7
2019-11-25 19:20,50.6304466666667,-96.9807666666667,11.3,13.2,14,973.76,-0.5,99,1.06,0.0,1001.27,107.7
2019-11-25 19:30,50.6304216666667,-96.9807883333333,10.4,12.5,12,973.88,-0.6,99,1.05,0.0,1001.41,107.7
2019-11-25 19:40,50.63046,-96.9807633333333,9.6,10.9,13,974.06,-0.5,99,1.05,0.0,1001.58,107.7
2019-11-25 19:50,50.63044,-96.980775,9.3,11.1,10,974.20,-0.5,99,1.06,0.0,1001.73,107.7
2019-11-25 20:00,50.6304366666667,-96.980775,8.6,10.7,8,974.28,-0.5,99,1.05,0.0,1001.81,332.4
2019-11-25 20:10,50.6304333333333,-96.98072,8.8,10.4,13,974.34,-0.4,98,1.04,0.0,1001.87,332.4
2019-11-25 20:20,50.6304333333333,-96.9807616666667,8.5,10.1,13,974.46,-0.4,98,1.04,0.0,1001.99,332.4
2019-11-25 20:30,50.6304333333333,-96.9807633333333,8.6,10.5,15,974.57,-0.4,99,1.04,0.0,1002.10,332.4
2019-11-25 20:40,50.6304333333333,-96.980765,8.3,9.9,10,974.68,-0.4,97,1.05,0.0,1002.22,332.4
2019-11-25 20:50,50.630435,-96.9807666666667,9.4,11.4,13,974.73,-0.4,94,1.05,0.0,1002.27,332.4
2019-11-25 21:00,50.630435,-96.9807666666667,9.9,11.6,13,974.80,-0.4,94,1.05,0.0,1002.34,360.0
2019-11-25 21:10,50.630435,-96.9807683333333,9.7,11.3,8,974.86,-0.5,93,1.05,0.0,1002.41,360.0
2019-11-25 21:20,50.6304333333333,-96.9807666666667,10.6,12.5,11,974.92,-0.5,92,1.05,0.0,1002.47,360.0
2019-11-25 21:30,50.6304283333333,-96.9807533333333,9.7,11.9,7,975.10,-0.5,92,1.05,0.0,1002.65,360.0
2019-11-25 21:40,50.630435,-96.9807633333333,10.0,11.7,8,975.24,-0.5,92,1.04,0.0,1002.80,360.0
2019-11-25 21:50,50.630435,-96.9807616666667,9.8,12.0,5,975.47,-0.5,91,1.05,0.0,1003.03,360.0
2019-11-25 22:00,50.630435,-96.980765,8.3,10.5,358,975.74,-0.5,90,1.09,0.0,1003.31,142.0
2019-11-25 22:10,50.6304366666667,-96.9807666666667,8.2,11.7,349,975.93,-0.6,89,1.11,0.0,1003.50,142.0
2019-11-25 22:20,50.6304383333333,-96.9807666666667,9.7,13.2,356,976.03,-0.6,86,1.11,0.0,1003.61,142.0
2019-11-25 22:30,50.6304383333333,-96.9807683333333,8.9,11.0,355,976.08,-0.6,86,1.09,0.0,1003.66,142.0
2019-11-25 22:40,50.63044,-96.98077,9.6,12.4,357,976.21,-0.8,86,1.09,0.0,1003.80,142.0
2019-11-25 22:50,50.63044,-96.98077,10.0,13.1,355,976.35,-0.9,85,1.09,0.0,1003.95,142.0
2019-11-25 23:00,50.63044,-96.9807716666667,5.8,8.1,335,976.55,-0.9,84,1.08,0.0,1004.17,360.0
2019-11-25 23:10,50.63044,-96.9807716666667,5.6,8.6,336,976.69,-0.9,84,1.07,0.0,1004.31,360.0
2019-11-25 23:20,50.63044,-96.9807716666667,5.0,6.4,345,976.90,-0.9,84,1.07,0.0,1004.52,360.0
2019-11-25 23:30,50.6304416666667,-96.9807716666667,4.2,6.5,351,977.08,-0.9,85,1.06,0.0,1004.71,360.0
